Tracking 20623 objects as of 4-Apr-2020
HD Live streaming from Space Station
objects crossing your sky now

ONEWEB-0058

Track ONEWEB-0058 now!
10-day predictions
ONEWEB-0058 is classified as:


NORAD ID: 45161
Int'l Code: 2020-008AG
Perigee: 573.8 km
Apogee: 606.5 km
Inclination: 87.5 °
Period: 96.3 minutes
Semi major axis: 6961 km
RCS: Unknown
Launch date: February 6, 2020
Source: United Kingdom (UK)
Launch site: TYURATAM MISSILE AND SPACE COMPLEX (TTMTR)
aabbcc
Your satellite tracking list
Your tracking list is empty




NASA's NSSDC Master Catalog

Two Line Element Set (TLE):
1 45161U 20008AG  20094.64972145 -.00263573  00000-0 -25033-1 0  9992
2 45161  87.5381 145.1394 0023502  89.4464 270.9459 14.94806032  9401
Source of the keplerian elements: AFSPC